CW8374 Weather Reports


Display with metric or nautical units.
time (UTC)temp
F
wind
direction
speed
MPH
gust
MPH
rain 1hr
in
rain 24hr
in
rain mn
in
humidity
%
barometer
mb
20260507194905 52 261 0.0 0.0 0.00 0.00 0.00 3 1010.5
20260507194404 52 261 0.0 0.0 0.00 0.00 0.00 3 1010.5
20260507193403 52 261 0.0 0.0 0.00 0.00 0.00 3 1010.5
20260507191404 52 261 0.0 0.0 0.00 0.00 0.00 3 1010.3
20260507184904 52 261 0.0 0.0 0.00 0.00 0.00 3 1010.3
20260507183406 52 263 0.0 0.0 0.00 0.00 0.00 3 1010.3
20260507181904 52 262 0.0 0.0 0.00 0.00 0.00 3 1010.2
20260507181405 52 262 0.0 0.0 0.00 0.00 0.00 3 1010.2
20260507180903 52 262 0.0 0.0 0.00 0.00 0.00 3 1010.2
20260507180404 52 262 0.0 0.0 0.00 0.00 0.00 3 1010.2
20260507174904 55 263 0.0 0.0 0.00 0.00 0.00 3 1010.2
20260507174404 55 262 0.0 0.0 0.00 0.00 0.00 3 1010.2
20260507173904 55 263 0.0 0.0 0.00 0.00 0.00 3 1010.2
20260507164404 57 200 7.0 15.0 0.00 0.00 0.00 20 1010.2
20260507163904 57 157 0.0 3.0 0.00 0.00 0.00 25 1010.0
20260507160904 55 149 1.0 13.0 0.00 0.00 0.00 27 1009.8
20260507160403 55 117 3.0 10.0 0.00 0.00 0.00 29 1009.8
20260507154903 55 146 1.0 8.0 0.00 0.00 0.00 26 1010.0
20260507154404 55 143 0.0 6.0 0.00 0.00 0.00 22 1010.0
20260507153404 55 154 3.0 12.0 0.00 0.00 0.00 19 1010.0
20260507150403 55 169 0.0 13.0 0.00 0.00 0.00 29 1010.1
20260507143904 57 133 1.0 12.0 0.00 0.00 0.00 27 1010.3
20260507140905 59 168 3.0 13.0 0.00 0.00 0.00 24 1010.7
20260507140404 59 153 3.0 12.0 0.00 0.00 0.00 23 1010.6
20260507133903 57 111 3.0 12.0 0.00 0.00 0.00 17 1010.8
20260507133404 57 122 2.0 12.0 0.00 0.00 0.00 17 1010.7
20260507131404 55 152 5.0 12.0 0.00 0.00 0.00 12 1010.9
20260507130404 55 150 3.0 13.0 0.00 0.00 0.00 12 1011.0
20260507124905 55 95 1.0 6.0 0.00 0.00 0.00 4 1011.1
20260507124404 55 135 3.0 12.0 0.00 0.00 0.00 5 1011.2
20260507123904 55 147 5.0 12.0 0.00 0.00 0.00 6 1011.2
20260507121904 54 140 4.0 13.0 0.00 0.00 0.00 4 1011.2
20260507120404 54 140 4.0 12.0 0.00 0.00 0.00 3 1011.3
20260507114404 52 134 6.0 15.0 0.00 0.00 0.00 3 1011.3
20260507111403 50 134 3.0 9.0 0.00 0.00 0.00 3 1011.5
20260507104404 48 140 3.0 12.0 0.00 0.00 0.00 3 1011.7
20260507103404 48 132 3.0 10.0 0.00 0.00 0.00 3 1011.7
20260507101404 48 132 1.0 5.0 0.00 0.00 0.00 3 1011.7
20260507100903 48 127 1.0 10.0 0.00 0.00 0.00 3 1011.7
20260507094904 46 133 1.0 6.0 0.00 0.00 0.00 3 1011.7
20260507094404 46 140 0.0 9.0 0.00 0.00 0.00 3 1011.8
20260507093904 46 129 3.0 12.0 0.00 0.00 0.00 3 1011.8
20260507093405 46 119 2.0 10.0 0.00 0.00 0.00 3 1011.8
20260507091403 46 135 1.0 6.0 0.00 0.00 0.00 3 1011.8
20260507090905 46 103 1.0 5.0 0.00 0.00 0.00 3 1011.8
20260507084904 46 117 1.0 6.0 0.00 0.00 0.00 3 1011.7
20260507081403 45 135 1.0 7.0 0.00 0.00 0.00 3 1011.7
20260507074904 45 127 1.0 6.0 0.00 0.00 0.00 3 1011.7
20260507074404 45 153 1.0 6.0 0.00 0.00 0.00 3 1011.7
20260507073404 45 120 1.0 12.0 0.00 0.00 0.00 3 1011.6
20260507071903 45 148 2.0 9.0 0.00 0.00 0.00 3 1011.6
20260507071404 45 145 2.0 6.0 0.00 0.00 0.00 3 1011.6
20260507070904 45 138 2.0 7.0 0.00 0.00 0.00 3 1011.6
20260507070403 45 136 4.0 12.0 0.00 0.00 0.00 3 1011.4
20260507064405 45 130 1.0 8.0 0.00 0.00 0.00 3 1011.5
20260507061904 45 145 4.0 14.0 0.00 0.00 0.00 3 1011.4
20260507061404 45 138 0.0 6.0 0.00 0.00 0.00 3 1011.4
20260507060403 45 153 3.0 9.0 0.00 0.00 0.00 3 1011.3
20260507054404 43 142 1.0 5.0 0.00 0.00 0.00 3 1011.3
20260507053404 43 146 2.0 12.0 0.00 0.00 0.00 3 1011.3
20260507051404 43 148 1.0 5.0 0.00 0.00 0.00 3 1011.2
20260507050903 43 128 0.0 5.0 0.00 0.00 0.00 3 1011.2
20260507044403 43 140 1.0 7.0 0.00 0.00 0.00 3 1011.2
20260507043405 43 141 2.0 10.0 0.00 0.00 0.00 3 1011.2
20260507041404 43 123 3.0 12.0 0.00 0.00 0.00 3 1011.2
20260507040904 43 143 3.0 10.0 0.00 0.00 0.00 3 1011.3
20260507040404 43 129 2.0 10.0 0.00 0.00 0.00 3 1011.3
20260507033903 43 136 1.0 5.0 0.00 0.00 0.00 3 1011.3
20260507033404 43 144 3.0 12.0 0.00 0.00 0.00 3 1011.3
20260507030903 43 155 2.0 6.0 0.00 0.00 0.00 3 1011.4
20260507024903 43 119 0.0 5.0 0.00 0.00 0.00 3 1011.5
20260507024405 43 139 1.0 8.0 0.00 0.00 0.00 3 1011.5
20260507023404 43 132 2.0 9.0 0.00 0.00 0.00 3 1011.6
20260507021904 45 126 0.0 3.0 0.00 0.00 0.00 3 1011.5
20260507020903 45 69 0.0 3.0 0.00 0.00 0.00 3 1011.5
20260507020404 45 126 0.0 6.0 0.00 0.00 0.00 3 1011.5
20260507014404 45 114 2.0 7.0 0.00 0.00 0.00 3 1011.6
20260507011404 45 120 0.0 12.0 0.00 0.00 0.00 3 1011.7
20260507010404 45 103 2.0 12.0 0.00 0.00 0.00 3 1011.7
20260507003904 45 135 3.0 12.0 0.00 0.00 0.00 3 1011.8
20260507001403 45 135 5.0 10.0 0.00 0.00 0.00 3 1012.0
20260507000904 45 138 3.0 10.0 0.00 0.00 0.00 3 1012.0
20260506234904 46 130 1.0 3.0 0.00 0.00 0.00 3 1011.8
20260506234404 46 130 2.0 7.0 0.00 0.00 0.00 3 1011.8
20260506233903 46 135 0.0 9.0 0.00 0.00 0.00 3 1011.8
20260506231404 46 114 2.0 8.0 0.00 0.00 0.00 3 1011.7
20260506230405 46 86 2.0 7.0 0.00 0.00 0.00 3 1011.7
20260506224904 46 123 2.0 8.0 0.00 0.00 0.00 3 1011.7
20260506223904 46 128 2.0 7.0 0.00 0.00 0.00 3 1011.6
20260506223403 46 132 0.0 6.0 0.00 0.00 0.00 3 1011.6
20260506221903 46 140 2.0 6.0 0.00 0.00 0.00 9 1011.6
20260506214904 48 135 4.0 12.0 0.00 0.00 0.00 23 1011.4
20260506214404 48 135 2.0 8.0 0.00 0.00 0.00 25 1011.3
20260506213903 48 136 5.0 17.0 0.00 0.00 0.00 27 1011.3
20260506213403 48 75 3.0 12.0 0.00 0.00 0.00 29 1011.3
20260506211904 48 124 2.0 9.0 0.00 0.00 0.00 36 1011.3
20260506210404 48 111 1.0 12.0 0.00 0.00 0.00 42 1011.3
20260506204904 48 81 1.0 6.0 0.00 0.00 0.00 44 1011.2
20260506204405 48 97 1.0 5.0 0.00 0.00 0.00 45 1011.2
20260506203904 48 109 1.0 5.0 0.00 0.00 0.00 47 1011.2